Flag for Germany Weather past 2 weeks in Wegberg, North Rhine-Westphalia, Germany

Now
75 °F

Sunny.


Feels Like: 78 °F
Forecast: 60 / 70 °F
Wind: 8 mph from Northeast

Location: Monchengladbach Airport

Current Time: Jul 24, 2014 at 11:21:13 AM

Latest Report: Jul 24, 2014 at 10:50 AM


Visibility: 10 mi

Pressure: 29.98 "Hg

Humidity: 50%

Dew point: 55 °F

Location of WegbergLocation

Historic Weather in Wegberg — Graph

°F

Wegberg temperature yesterday

Maximum temperature yesterday: 84 °F (at 4:20 PM)
Minimum temperature yesterday: 81 °F (at 7:50 PM)
Average temperature yesterday: 82 °F

Past Weeks' High & Low Weather Summary

 TemperatureHumidityPressure
High91 °F (Jul 19, 4:50 PM)100% (Jul 9, 2:50 PM)30.18 "Hg (Jul 9, 2:50 PM)
Low59 °F (Jul 9, 2:50 PM)29% (Jul 19, 12:50 PM)29.65 "Hg (Jul 9, 4:50 PM)
Average73 °F75%29.95 "Hg
* Reported Jul 9 2:50 PM — Jul 24 10:20 AM, Wegberg, Weather by CustomWeather, © 2014

Note: Actual official high and low records may vary slightly from our data, if they occured in-between our weather recording intervals... More about our weather records

Advertising

Wegberg weather history for previous 24 hours

 ConditionsComfort  
Time TempWeatherWind HumidityBarometerVisibility
10:20 AM
Jul 24
73 °FSunny.9 mph53%29.98 "Hg10 mi
9:50 AM72 °FSunny.8 mph61%29.98 "Hg10 mi
9:20 AM70 °FSunny.6 mph64%29.98 "Hg10 mi
8:50 AM68 °FPassing clouds.7 mph69%29.98 "HgN/A
8:20 AM66 °FPassing clouds.7 mph73%29.98 "HgN/A
7:50 AM66 °FPassing clouds.7 mph73%29.98 "HgN/A
7:20 AM66 °FPassing clouds.6 mph73%29.98 "HgN/A
8:20 PM
Jul 23
81 °FPassing clouds.8 mph48%29.98 "HgN/A
7:50 PM81 °FClear.8 mph48%29.98 "Hg10 mi
7:20 PM82 °FClear.8 mph45%29.98 "Hg10 mi
6:50 PM82 °FClear.7 mph45%29.98 "Hg10 mi
6:20 PM82 °FPassing clouds.9 mph48%29.98 "HgN/A
5:50 PM82 °FPassing clouds.10 mph45%29.98 "HgN/A
5:20 PM82 °FPassing clouds.10 mph48%30.01 "HgN/A
4:50 PM82 °FPassing clouds.10 mph48%30.01 "HgN/A
4:20 PM84 °FPassing clouds.10 mph45%30.01 "HgN/A
3:50 PM82 °FPassing clouds.10 mph48%30.01 "HgN/A
3:20 PM82 °FPassing clouds.12 mph48%30.01 "HgN/A
2:50 PM82 °FPassing clouds.10 mph48%30.04 "HgN/A
Weather by CustomWeather, © 2014

See weather overviewHow to use our weather pages